Hourly Data Report for October 01, 2017

All times are specified in Local Standard Time (LST). Add 1 hour to adjust for Daylight Saving Time where and when it is observed.

WEST VANCOUVER AUT
BRITISH COLUMBIA

49°20'49.350" N
123°11'35.910" W
170.20 m
1108824
71784
WWA

Download Data

Hourly Data (October 2017)
Hourly Data Report for October 1, 2017
Temp Definition
°C
Dew Point Temp Definition
°C
Rel Hum Definition
%
Wind Dir Definition
10's deg

Wind Spd Definition
km/h
Visibility Definition
km
Stn Press Definition
kPa
Hmdx Definition


Wind Chill Definition


Weather Definition


TIME
00:00 8.3 6.3 87 1 3   99.80     LegendNANA
01:00 8.2 6.1 87 1 4   99.82     LegendNANA
02:00 8.5 6.3 86 1 3   99.81     LegendNANA
03:00 9.2 6.8 85 34 2   99.82     LegendNANA
04:00 8.5 5.7 82 1 4   99.85     LegendNANA
05:00 9.0 6.2 83 2 2   99.86     LegendNANA
06:00 8.3 5.7 84 36 2   99.88     LegendNANA
07:00 7.9 5.1 83 1 1   99.92     LegendNANA
08:00 9.9 7.1 83 0 1   99.94     LegendNANA
09:00 11.1 7.7 80 18 1   99.94     LegendNANA
10:00 13.1 6.9 66 20 4   99.95     LegendNANA
11:00 13.6 6.4 61 20 4   99.97     LegendNANA
12:00 13.8 7.5 66 18 3   99.99     LegendNANA
13:00 15.8 7.3 57 18 3   99.96     LegendNANA
14:00 15.1 8.1 63 18 3   99.93     LegendNANA
15:00 15.5 6.8 56 20 3   99.94     LegendNANA
16:00 15.8 6.3 53 21 2   99.93     LegendNANA
17:00 14.2 6.6 60 18 1   99.94     LegendNANA
18:00 11.9 7.2 73   0   99.96     LegendNANA
19:00 10.6 6.5 75 4 3   99.96     LegendNANA
20:00 10.4 5.9 74 2 4   99.97     LegendNANA
21:00 10.6 5.9 73 36 4   99.97     LegendNANA
22:00 9.6 6.0 78 3 2   99.97     LegendNANA
23:00 9.3 5.8 79 2 3   100.00     LegendNANA

Notes on Data Quality.

Legend

  • E = Estimated
  • M = Missing
  • NA = Not Available
  • ‡ = Partner data that is not subject to review by the National Climate Archives
Date modified: